Wind_Speed
18 19 19 18 17 18 20 19 17 14 12 10 7 5 4 3 4 4 5 5 5 4 3 2 1 1 1 2 2 3 4 5 6 7 8 8 8 9 9 9 10 10
19 20 19 18 18 19 20 19 16 14 12 9 7 5 2 1 3 3 4 5 5 4 3 2 1 1 1 2 3 3 4 5 5 6 6 7 7 7 8 8 8 9
20 20 19 19 19 20 21 19 16 15 13 10 8 6 2 1 3 4 5 5 4 3 2 2 2 1 2 3 4 4 5 5 5 5 5 6 7 7 8 8 7 8
20 20 20 20 21 21 20 18 17 16 14 11 8 5 3 3 4 5 6 4 3 3 2 2 1 1 3 4 5 5 6 6 5 5 5 6 7 8 8 9 8 8
21 21 21 22 23 22 20 18 16 14 12 10 9 7 5 5 5 6 5 4 3 2 1 2 2 3 4 5 6 6 6 6 6 6 5 6 7 7 8 8 8 8
23 22 23 24 24 23 21 19 15 12 11 11 10 9 8 6 6 6 5 4 3 1 2 3 3 4 5 6 6 7 7 7 6 6 6 6 7 7 7 7 7 7
24 23 23 24 25 24 22 20 17 15 15 14 13 12 10 8 7 6 5 5 3 1 2 4 5 6 6 7 8 8 8 7 7 7 7 7 7 7 8 8 8 8
25 24 24 24 25 24 23 21 18 18 18 18 16 14 12 9 7 6 6 5 3 1 2 4 6 8 8 9 9 9 9 8 8 8 7 7 7 7 8 8 8 8
25 24 23 23 23 23 22 21 19 19 20 19 18 16 14 11 8 7 6 6 3 1 2 5 7 9 10 10 10 10 9 9 8 8 8 7 7 7 8 8 7 8
25 24 23 22 22 21 21 20 19 20 21 21 19 18 15 12 10 8 7 6 3 1 3 6 8 9 10 11 11 10 9 9 9 8 8 8 8 8 8 8 7 8
25 24 23 21 20 19 20 20 20 21 22 23 21 19 17 13 11 9 9 8 4 2 6 8 9 10 11 11 11 10 10 10 9 9 9 8 8 8 8 8 8 8
29 26 23 22 21 19 18 20 21 22 23 24 22 21 18 15 13 12 12 10 6 5 9 11 11 11 12 12 12 12 11 11 10 10 10 10 10 9 9 9 10 10
29 25 22 21 22 20 18 19 21 23 24 25 24 23 20 17 15 15 14 11 8 8 11 12 12 12 12 12 13 12 12 11 11 11 11 11 11 11 11 11 11 11
22 21 21 21 21 21 21 21 23 23 24 25 25 24 22 19 18 18 17 15 12 11 13 14 14 14 14 13 13 12 12 12 12 12 11 11 12 12 12 12 12 11
21 22 22 22 23 24 24 24 25 25 25 26 26 24 23 21 22 21 20 18 15 13 15 16 16 16 15 15 14 14 13 13 12 12 11 11 11 11 12 12 12 12
21 23 23 24 25 27 27 27 28 27 26 26 26 25 24 23 24 24 22 20 16 14 16 18 17 16 16 16 15 15 13 13 12 12 12 12 11 11 11 12 12 13
23 24 25 27 28 28 28 29 29 30 30 29 26 25 25 25 26 26 23 20 17 15 17 19 18 17 16 16 16 15 15 14 13 13 12 12 12 12 12 12 13 13
26 24 22 24 26 25 25 27 30 31 31 31 28 26 26 27 29 29 26 23 21 19 18 19 20 18 17 17 17 17 16 15 15 14 14 14 14 14 14 14 14 15
26 25 23 21 19 19 19 20 25 29 28 27 29 32 32 31 31 33 32 30 28 25 21 20 21 20 19 19 19 19 18 18 18 17 17 17 16 16 17 17 17 17
20 20 20 16 13 14 15 13 15 20 22 21 23 29 33 34 34 34 35 35 33 30 24 22 23 22 21 21 20 20 21 21 21 21 21 20 19 19 18 18 19 19
13 12 12 13 14 14 14 13 11 13 15 16 16 18 24 31 35 35 35 34 32 29 25 24 24 23 23 22 21 22 23 24 24 24 23 23 22 22 21 21 21 21
10 9 8 11 14 16 15 14 13 11 11 13 14 15 18 26 34 36 36 35 33 31 29 27 25 25 26 25 24 23 24 26 27 26 26 26 25 25 25 24 24 24
8 8 7 9 13 16 15 14 14 13 12 13 15 16 17 22 28 32 33 33 32 32 31 30 28 27 28 28 28 27 27 28 29 29 28 28 28 28 28 26 26 27
7 7 7 8 11 13 13 13 14 15 14 15 15 16 17 19 23 25 26 27 27 27 28 28 27 27 28 30 30 29 28 28 29 30 30 29 29 30 30 29 28 28
8 8 8 9 10 12 12 11 12 13 14 13 13 14 15 16 19 21 22 25 26 25 26 27 27 27 29 30 30 29 28 28 29 30 30 31 31 32 31 31 30 29
9 9 9 10 11 12 12 12 12 13 13 13 12 13 14 16 18 21 22 23 24 24 26 27 27 28 30 31 30 29 28 28 29 31 32 33 34 34 34 33 31 30
Wind_Direction
192 193 192 193 190 184 181 179 175 174 173 170 167 160 132 78 48 37 38 41 49 62 77 90 109 201 219 213 205 195 191 190 187 192 201 204 210 216 213 212 214 213
192 193 194 195 193 186 182 180 178 182 184 181 184 183 167 53 24 17 14 16 26 42 60 75 84 152 194 196 192 190 195 195 191 191 191 186 191 206 207 204 206 207
196 195 196 196 193 187 185 185 186 192 195 195 200 202 214 302 334 345 351 349 357 24 56 71 75 145 188 186 182 181 185 187 186 183 179 175 174 185 196 197 198 203
200 199 198 197 194 189 188 190 192 197 202 205 210 213 228 268 303 330 342 339 339 6 50 88 99 162 185 183 179 179 180 182 180 171 163 163 165 174 186 190 195 203
202 200 200 199 197 194 192 190 190 198 209 215 218 215 222 251 285 317 337 338 339 355 85 113 139 178 186 182 177 176 178 178 179 171 156 155 159 163 172 183 194 202
203 202 201 201 202 201 198 191 193 211 224 222 218 215 222 244 271 301 320 324 338 3 143 144 164 182 182 178 171 171 175 175 175 167 156 159 162 162 165 172 183 191
207 204 203 203 206 208 205 201 208 223 226 222 217 218 226 241 260 285 301 307 331 20 143 158 173 179 176 173 170 169 171 171 171 166 163 164 163 165 165 167 176 184
210 207 206 207 208 211 212 210 214 219 219 218 216 218 225 235 248 268 284 296 325 16 151 167 175 177 174 172 170 169 170 171 171 167 164 162 161 165 165 163 170 177
210 209 210 211 211 212 214 215 217 219 220 218 216 219 225 231 240 252 263 275 306 1 169 178 179 177 174 174 174 175 177 178 179 177 171 165 163 163 162 160 163 168
208 209 210 211 212 213 215 217 219 222 223 221 219 222 226 229 234 236 239 248 272 300 183 184 185 183 181 181 180 181 185 186 187 188 184 181 177 172 169 169 169 170
203 205 205 205 208 213 218 220 221 223 224 222 222 225 228 230 229 222 222 230 238 216 195 191 192 194 190 188 188 188 191 191 191 192 195 197 197 193 190 187 184 183
202 204 202 202 205 207 213 220 222 223 224 223 223 226 229 228 222 213 215 223 218 196 197 196 197 200 198 196 197 198 199 201 202 203 206 210 213 214 213 209 205 199
206 208 206 209 213 209 208 216 220 222 224 224 224 226 227 224 217 210 209 208 195 188 198 201 200 202 204 203 203 205 208 212 214 216 218 220 222 225 224 222 219 214
214 217 217 218 222 220 218 219 220 222 223 223 223 223 225 220 212 205 201 198 194 195 203 204 203 204 206 207 209 212 215 220 225 228 231 233 233 234 233 231 229 226
220 224 226 225 224 224 225 224 222 221 223 224 223 222 222 217 209 203 202 203 207 214 214 209 208 209 210 214 217 219 220 224 229 234 238 243 245 246 244 241 239 238
225 231 235 234 230 227 228 228 226 223 223 223 223 222 219 214 210 208 207 207 213 218 213 211 213 214 216 220 222 223 223 224 229 236 242 249 253 253 251 246 242 242
234 236 236 238 238 232 227 228 229 229 228 224 221 221 219 213 209 208 206 206 211 214 211 215 220 219 219 226 228 228 230 230 234 241 248 255 260 261 261 256 249 245
238 240 238 241 243 237 229 230 232 231 227 221 216 215 215 212 209 208 205 202 207 217 219 221 227 228 229 234 235 236 239 240 243 248 254 261 266 269 270 268 262 258
242 245 245 246 247 240 234 235 236 232 227 221 219 218 217 215 213 216 217 216 221 233 234 226 229 234 234 237 241 243 246 249 250 253 256 261 265 270 273 274 272 269
242 243 243 239 233 231 230 229 233 231 226 225 228 229 226 222 219 223 228 230 236 246 243 230 230 236 236 239 244 247 250 252 254 256 259 261 264 267 271 273 273 273
231 233 233 226 216 216 219 220 225 227 223 224 231 235 231 224 221 224 230 234 240 245 239 231 232 237 239 241 246 251 255 255 255 257 260 262 265 268 270 272 274 274
218 215 216 216 210 205 205 212 222 225 227 230 232 235 232 225 223 226 231 236 240 240 237 235 236 238 239 242 248 257 262 259 256 256 258 262 267 270 271 273 274 276
206 205 201 199 202 204 206 215 224 224 224 231 235 237 236 231 229 230 233 237 240 240 241 242 240 240 241 244 250 260 265 262 256 254 257 263 268 270 272 274 276 277
203 205 204 194 197 208 216 226 232 229 225 229 234 236 234 232 232 232 233 237 239 240 244 245 242 241 243 245 252 260 264 260 254 253 258 264 267 269 271 273 275 276
215 212 211 206 206 214 221 226 229 227 226 228 232 235 233 230 233 235 235 239 240 239 241 243 242 243 245 248 254 259 260 256 253 254 259 263 265 267 268 270 272 274
231 227 224 217 213 215 217 219 222 223 227 231 235 240 240 236 238 239 238 239 241 240 240 241 242 244 246 250 255 259 258 255 254 255 259 262 263 264 265 268 272 273
Height
3139 3141 3143 3145 3146 3147 3149 3150 3152 3153 3154 3155 3156 3157 3157 3158 3158 3159 3159 3159 3159 3159 3159 3159 3158 3159 3159 3159 3159 3159 3159 3159 3159 3160 3161 3161 3161 3162 3162 3163 3163 3164
3138 3140 3142 3143 3145 3147 3148 3150 3151 3153 3154 3154 3155 3156 3157 3157 3158 3158 3158 3158 3158 3158 3158 3158 3158 3158 3158 3158 3158 3158 3158 3158 3159 3159 3160 3161 3161 3162 3162 3162 3163 3164
3137 3139 3141 3143 3144 3146 3147 3149 3150 3152 3153 3153 3154 3155 3156 3156 3157 3157 3157 3157 3157 3157 3157 3157 3157 3157 3157 3158 3158 3158 3158 3158 3158 3159 3159 3160 3161 3162 3162 3163 3163 3164
3137 3138 3140 3142 3143 3145 3146 3147 3149 3151 3152 3152 3153 3154 3155 3155 3156 3156 3156 3156 3156 3156 3156 3156 3156 3156 3157 3157 3157 3158 3158 3158 3158 3159 3159 3160 3160 3161 3162 3163 3163 3164
3136 3137 3139 3141 3142 3143 3145 3146 3148 3149 3150 3151 3152 3153 3153 3154 3155 3155 3156 3156 3156 3156 3155 3156 3156 3156 3157 3157 3157 3158 3158 3158 3158 3159 3159 3160 3160 3161 3162 3163 3163 3164
3134 3136 3138 3139 3141 3142 3144 3145 3146 3148 3149 3150 3151 3152 3152 3153 3154 3155 3155 3155 3155 3155 3155 3155 3155 3156 3156 3157 3157 3158 3158 3158 3159 3159 3159 3160 3160 3161 3162 3163 3163 3164
3133 3135 3136 3138 3139 3141 3143 3144 3145 3146 3148 3148 3149 3150 3151 3152 3153 3154 3154 3155 3154 3154 3154 3155 3155 3155 3156 3157 3157 3157 3158 3158 3159 3159 3159 3160 3160 3161 3162 3163 3164 3164
3131 3133 3135 3136 3138 3140 3141 3143 3144 3145 3146 3147 3148 3149 3150 3151 3152 3152 3153 3154 3154 3154 3154 3154 3155 3155 3156 3156 3157 3157 3158 3159 3159 3159 3160 3160 3160 3161 3161 3162 3163 3164
3129 3132 3133 3135 3136 3138 3140 3142 3143 3144 3145 3146 3147 3147 3148 3150 3150 3151 3152 3153 3153 3153 3153 3154 3155 3155 3156 3156 3157 3157 3158 3159 3159 3160 3160 3160 3161 3161 3161 3162 3163 3163
3128 3130 3132 3133 3135 3137 3138 3140 3142 3143 3144 3145 3145 3146 3147 3148 3149 3150 3151 3152 3152 3152 3153 3153 3154 3155 3156 3156 3157 3157 3158 3158 3159 3159 3160 3160 3161 3161 3162 3162 3162 3163
3126 3127 3129 3132 3134 3135 3137 3138 3140 3141 3142 3143 3144 3144 3145 3147 3148 3148 3149 3150 3151 3152 3152 3153 3154 3155 3156 3156 3157 3157 3158 3158 3159 3159 3160 3160 3161 3161 3161 3162 3162 3162
3122 3124 3127 3130 3131 3133 3135 3136 3137 3139 3140 3141 3142 3143 3144 3145 3146 3147 3148 3149 3150 3151 3152 3152 3153 3154 3155 3156 3156 3157 3157 3158 3158 3159 3160 3160 3160 3161 3161 3161 3161 3162
3120 3124 3128 3130 3130 3132 3133 3134 3135 3137 3138 3140 3141 3141 3142 3144 3145 3145 3146 3147 3148 3150 3151 3152 3152 3153 3154 3155 3155 3156 3156 3157 3158 3158 3159 3159 3160 3160 3160 3160 3160 3161
3123 3125 3127 3129 3130 3131 3132 3132 3133 3135 3136 3137 3139 3140 3141 3142 3143 3143 3144 3145 3147 3148 3150 3150 3151 3152 3153 3153 3154 3154 3155 3156 3156 3157 3158 3158 3158 3159 3159 3159 3159 3159
3121 3123 3125 3127 3128 3129 3130 3131 3131 3132 3134 3135 3137 3138 3139 3140 3141 3141 3142 3144 3145 3146 3147 3149 3149 3150 3151 3151 3152 3153 3153 3154 3155 3155 3156 3157 3157 3157 3157 3157 3157 3158
3119 3120 3122 3124 3125 3126 3127 3128 3129 3130 3132 3134 3135 3136 3137 3138 3139 3140 3141 3142 3143 3144 3145 3147 3147 3148 3149 3149 3150 3151 3152 3153 3153 3154 3154 3155 3155 3156 3156 3156 3156 3156
3116 3117 3119 3120 3121 3122 3124 3125 3126 3127 3129 3131 3133 3134 3135 3136 3137 3138 3139 3140 3141 3142 3143 3145 3146 3146 3147 3148 3148 3149 3150 3151 3151 3152 3152 3153 3154 3154 3154 3154 3154 3154
3114 3114 3116 3117 3118 3119 3121 3122 3123 3123 3125 3127 3130 3132 3133 3134 3135 3135 3136 3137 3138 3139 3141 3143 3144 3145 3145 3146 3146 3147 3148 3148 3149 3150 3150 3151 3152 3152 3152 3152 3152 3152
3111 3112 3113 3114 3115 3116 3118 3119 3120 3120 3121 3123 3126 3128 3129 3131 3132 3132 3133 3134 3135 3137 3139 3141 3142 3143 3143 3144 3144 3145 3146 3146 3147 3148 3148 3149 3149 3149 3150 3150 3150 3150
3109 3110 3110 3111 3112 3114 3115 3117 3118 3118 3120 3121 3123 3124 3125 3128 3130 3130 3131 3132 3134 3136 3137 3138 3140 3140 3141 3141 3142 3143 3143 3144 3145 3146 3146 3146 3147 3147 3147 3147 3147 3148
3107 3108 3109 3109 3111 3112 3114 3115 3116 3117 3119 3120 3121 3122 3123 3125 3127 3128 3129 3130 3132 3133 3134 3135 3137 3138 3139 3139 3140 3141 3142 3142 3143 3143 3144 3144 3144 3144 3144 3144 3144 3145
3106 3107 3108 3108 3109 3111 3112 3113 3114 3116 3117 3118 3119 3120 3121 3122 3124 3125 3126 3128 3130 3131 3131 3132 3134 3135 3136 3137 3138 3139 3140 3140 3141 3141 3141 3142 3142 3142 3142 3142 3141 3142
3106 3107 3107 3108 3109 3110 3111 3112 3113 3114 3115 3116 3118 3118 3120 3121 3121 3122 3124 3125 3127 3128 3128 3129 3131 3132 3133 3134 3135 3136 3137 3137 3138 3138 3139 3139 3139 3139 3139 3139 3138 3138
3105 3106 3107 3108 3109 3110 3111 3111 3112 3113 3114 3115 3116 3117 3118 3119 3119 3120 3122 3123 3124 3125 3125 3126 3127 3129 3130 3131 3132 3133 3133 3134 3135 3135 3136 3136 3136 3136 3135 3135 3135 3135
3105 3106 3107 3107 3108 3109 3110 3110 3111 3112 3113 3114 3115 3115 3116 3117 3118 3119 3120 3121 3122 3123 3123 3123 3124 3126 3127 3128 3129 3130 3130 3131 3131 3132 3132 3132 3132 3132 3132 3131 3131 3131
3103 3104 3105 3106 3107 3108 3108 3109 3110 3111 3112 3113 3114 3114 3115 3116 3117 3117 3118 3119 3120 3120 3121 3121 3122 3123 3123 3124 3126 3126 3127 3128 3128 3128 3129 3128 3128 3128 3128 3128 3128 3127